Regional Weather Roundup
Issued by NWS Green Bay, WI

Home | Current Version | Previous Version | Text Only | Print | Product List | Glossary On
Versions: 1 2 3 4 5 6 7 8 9 10 11 12 13 14 15 16 17 18 19 20 21 22 23 24 25 26 27 28 29 30 31 32 33 34 35 36 37 38 39 40 41 42 43 44 45 46 47 48 49 50
000
ASUS43 KGRB 171410
RWRGRB

NORTH-CENTRAL AND NORTHEAST WISCONSIN REGIONAL WEATHER ROUNDUP
NATIONAL WEATHER SERVICE GREEN BAY WI
900 AM CDT THU APR 17 2014

WIZ005-009-010>012-018-019-171500-
NORTH CENTRAL WISCONSIN

CITY           SKY/WX    TMP DP  RH WIND       PRES   REMARKS
IRONWOOD       CLOUDY    32  28  86 CALM      30.06R VSB 3/4
MANITOWISH WTR LGT SNOW  32  31  96 E3        30.06R
ARBOR VITAE    LGT SNOW  34  32  92 S3        30.06R
EAGLE RIVER    SNOW      32  31  98 SE5       30.06S VSB 1/2
LAND O LAKES   SNOW      32  30  94 SE7       30.08R VSB 1/2
RHINELANDER    LGT SNOW  32  30  92 SE8       30.06R FOG
PHILLIPS       CLOUDY    32  31  96 CALM      30.05R
ANTIGO         LGT SNOW  32  31  95 SE13      30.06S
TOMAHAWK       LGT SNOW  32  31  95 CALM      30.05S
MERRILL        CLOUDY    34  33  95 CALM      30.05S FOG
$$

WIZ013-073-171500-
NORTHEAST WISCONSIN

CITY           SKY/WX    TMP DP  RH WIND       PRES   REMARKS
IRON MOUNTAIN  HVY SNOW  31  29  92 E7        30.12S VSB 1/4
MARINETTE      CLOUDY    34  30  86 SE9       30.15S
OCONTO         CLOUDY    34  31  88 SE6       30.13S
$$

WIZ017-030-035>037-045-171500-
CENTRAL WISCONSIN

CITY           SKY/WX    TMP DP  RH WIND       PRES   REMARKS
MEDFORD        CLOUDY    33  32  96 SE5       30.05R FOG
WAUSAU         LGT RAIN  34  32  92 E8        30.04R FOG
MOSINEE        CLOUDY    34  34 100 E9        30.05R FOG
MARSHFIELD     CLOUDY    38  35  89 E7        30.04R FOG
WISC RAPIDS    MOSUNNY   40  33  76 E9        30.05R
STEVENS POINT  PTSUNNY   33  32  94 E8        30.05S
WAUPACA        CLOUDY    39  32  75 E5        30.06S
SHAWANO        LGT SNOW  35  33  92 E6        30.11S
CLINTONVILLE   FLURRIES  34  32  93 E6        30.08S
$$

WIZ038-039-048-051-171500-
FOX VALLEY

CITY           SKY/WX    TMP DP  RH WIND       PRES   REMARKS
NWS GREEN BAY  CLOUDY    38  30  73 SE14G23   30.09S
APPLETON       CLOUDY    37  30  75 SE12      30.07R
OSHKOSH        CLOUDY    40  30  67 S9        30.06R
FOND DU LAC    CLOUDY    41  31  67 SE12      30.06R
$$

WIZ022-050-052-171500-
EAST CENTRAL WISCONSIN

CITY           SKY/WX    TMP DP  RH WIND       PRES   REMARKS
STURGEON BAY   CLOUDY    34  28  80 SE12G17   30.14S
MANITOWOC      CLOUDY    38  30  73 S15G22    30.12S
SHEBOYGAN      CLOUDY    38  30  73 S15G24    30.11S
$$

LMZ563-521-522-541>543-171500-
LAKESHORE

STATION/POSITION TIME  TEMP    WIND        PRES    VSBY  WAVE
                       AIR SEA DIR/SP/G                  HT/PER
                 (UTC) (F)     (DEG/KT/KT) (MB)    (MI)  (FT/S)
SHEBOYGAN LKSHOR 1400   38     160/ 23/ 25 1020.2R
NORTHPORT PIER   1300   35     130/ 15/ 18 1022.4S
SISTER BAY LKSHO 1400   33     130/ 12/ 18   N/A
MENOMINEE LKSHOR 1400   34     120/ 14/ 17 1021.2S
$$



USA.gov is the U.S. government's official web portal to all federal, state and local government web resources and services.